EW2175 Weather Reports


time (UTC)temp
C
wind
direction
speed
KPH
gust
KPH
rain 1hr
cm
rain 24hr
cm
rain mn
cm
humidity
%
barometer
mb
20190422163044 26 40 1.6 12.9 0.00 0.00 0.00 24 998.9
20190422161611 26 52 1.6 14.5 0.00 0.00 0.00 24 999.1
20190422160056 27 55 0.0 11.3 0.00 0.00 0.00 23 999.2
20190422154618 27 30 0.0 12.9 0.00 0.00 0.00 20 999.3
20190422153111 28 35 4.8 16.1 0.00 0.00 0.00 19 999.5
20190422151528 27 39 6.4 19.3 0.00 0.00 0.00 19 999.6
20190422150038 27 90 0.0 9.7 0.00 0.00 0.00 19 999.7
20190422144536 27 82 1.6 14.5 0.00 0.00 0.00 19 999.9
20190422143013 27 343 1.6 8.0 0.00 0.00 0.00 21 1000.1
20190422141527 25 34 1.6 9.7 0.00 0.00 0.00 24 1000.6
20190422140026 24 41 0.0 4.8 0.00 0.00 0.00 33 1000.9
20190422134502 24 353 0.0 22.5 0.00 0.00 0.00 38 1001.1
20190422133224 25 328 9.7 22.5 0.00 0.00 0.00 34 1001.3
20190422131805 25 350 6.4 14.5 0.00 0.00 0.00 37 1001.6
20190422130115 25 25 1.6 14.5 0.00 0.00 0.00 37 1001.8
20190422124628 25 19 4.8 14.5 0.00 0.00 0.00 35 1002.3
20190422123116 25 338 1.6 9.7 0.00 0.00 0.00 36 1002.6
20190422121605 23 236 1.6 12.9 0.00 0.00 0.00 37 1002.8
20190422120219 23 330 1.6 12.9 0.00 0.00 0.00 38 1003.0
20190422114718 23 294 4.8 9.7 0.00 0.00 0.00 35 1003.3
20190422113057 23 338 8.0 14.5 0.00 0.00 0.00 34 1003.5
20190422111552 23 313 1.6 8.0 0.00 0.00 0.00 36 1003.8
20190422110102 22 250 0.0 12.9 0.00 0.00 0.00 39 1004.0
20190422104628 22 315 3.2 9.7 0.00 0.00 0.00 36 1004.2
20190422103043 21 306 3.2 12.9 0.00 0.00 0.00 36 1004.4
20190422101538 21 26 3.2 12.9 0.00 0.00 0.00 40 1004.8
20190422100054 20 311 1.6 12.9 0.00 0.00 0.00 40 1005.0
20190422094521 20 304 1.6 6.4 0.00 0.00 0.00 42 1005.3
20190422093010 19 298 0.0 6.4 0.00 0.00 0.00 42 1005.5
20190422090157 18 314 0.0 3.2 0.00 0.00 0.00 45 1005.8
20190422084717 17 352 0.0 6.4 0.00 0.00 0.00 50 1006.1
20190422083158 17 249 0.0 0.0 0.00 0.00 0.00 51 1006.2
20190422081640 16 203 0.0 0.0 0.00 0.00 0.00 53 1006.5
20190422080109 15 158 0.0 0.0 0.00 0.00 0.00 54 1006.6
20190422074604 14 294 0.0 0.0 0.00 0.00 0.00 59 1006.8
20190422073117 13 323 0.0 0.0 0.00 0.00 0.00 62 1007.0
20190422071555 12 357 0.0 0.0 0.00 0.00 0.00 65 1007.3
20190422070058 12 357 0.0 0.0 0.00 0.00 0.00 65 1007.3
20190422064548 12 357 0.0 0.0 0.00 0.00 0.00 64 1007.4
20190422063101 11 52 0.0 0.0 0.00 0.00 0.00 62 1007.4
20190422061545 10 52 0.0 0.0 0.00 0.00 0.00 64 1007.6
20190422060042 10 43 0.0 0.0 0.00 0.00 0.00 66 1007.7
20190422054607 9 44 0.0 0.0 0.00 0.00 0.00 67 1007.9
20190422053025 9 45 0.0 3.2 0.00 0.00 0.00 69 1008.0
20190422051535 8 156 0.0 0.0 0.00 0.00 0.00 70 1008.0
20190422050018 8 156 0.0 0.0 0.00 0.00 0.00 70 1008.1
20190422044510 8 156 0.0 0.0 0.00 0.00 0.00 70 1008.1
20190422043013 8 156 0.0 0.0 0.00 0.00 0.00 71 1008.2
20190422041507 8 156 0.0 0.0 0.00 0.00 0.00 71 1008.3
20190422040004 8 156 0.0 0.0 0.00 0.00 0.00 71 1008.3
20190422034702 8 156 0.0 0.0 0.00 0.00 0.00 70 1008.5
20190422033144 9 156 0.0 0.0 0.00 0.00 0.00 68 1008.5
20190422031710 9 156 0.0 0.0 0.00 0.00 0.00 67 1008.7
20190422030321 9 156 0.0 0.0 0.00 0.00 0.00 66 1008.7
20190422024640 10 177 0.0 0.0 0.00 0.00 0.00 66 1008.7
20190422023145 10 177 0.0 0.0 0.00 0.00 0.00 65 1009.0
20190422021624 10 177 0.0 0.0 0.00 0.00 0.00 65 1009.1
20190422020140 10 177 0.0 0.0 0.00 0.00 0.00 62 1009.1
20190422014618 11 163 0.0 0.0 0.00 0.00 0.00 60 1009.2
20190422013054 11 163 0.0 0.0 0.00 0.00 0.00 59 1009.2
20190422011608 11 163 0.0 0.0 0.00 0.00 0.00 58 1009.3
20190422010045 12 165 0.0 0.0 0.00 0.00 0.00 57 1009.4
20190422004551 12 135 0.0 0.0 0.00 0.00 0.00 54 1009.5
20190422003057 12 226 0.0 0.0 0.00 0.00 0.00 55 1009.7
20190422001538 13 320 0.0 0.0 0.00 0.00 0.00 53 1009.8
20190422000044 15 163 0.0 1.6 0.00 0.00 0.00 49 1009.9
20190421234530 15 34 0.0 6.4 0.00 0.00 0.00 39 1009.9
20190421233033 15 95 0.0 6.4 0.00 0.00 0.00 40 1010.2
20190421231544 14 103 0.0 6.4 0.00 0.00 0.00 43 1010.4
20190421230030 13 71 0.0 1.6 0.00 0.00 0.00 47 1010.4
20190421224515 13 103 0.0 1.6 0.00 0.00 0.00 52 1010.5
20190421223017 13 92 0.0 0.0 0.00 0.00 0.00 54 1010.4
20190421221553 14 71 0.0 0.0 0.00 0.00 0.00 55 1010.6
20190421220019 14 67 0.0 0.0 0.00 0.00 0.00 55 1010.7
20190421214501 15 68 0.0 0.0 0.00 0.00 0.00 55 1010.7
20190421213130 15 40 0.0 9.7 0.00 0.00 0.00 54 1010.9
20190421211631 15 56 0.0 8.0 0.00 0.00 0.00 56 1011.0
20190421210126 15 90 0.0 1.6 0.00 0.00 0.00 57 1011.1
20190421204644 15 58 0.0 4.8 0.00 0.00 0.00 58 1011.3
20190421203211 15 75 0.0 3.2 0.00 0.00 0.00 58 1011.3
20190421201705 16 47 0.0 8.0 0.00 0.00 0.00 58 1011.4
20190421200208 16 30 1.6 9.7 0.00 0.00 0.00 57 1011.5
20190421194654 16 88 0.0 0.0 0.00 0.00 0.00 58 1011.6
20190421193321 16 105 0.0 0.0 0.00 0.00 0.00 57 1011.8
20190421191650 17 98 0.0 0.0 0.00 0.00 0.00 56 1011.7
20190421190115 17 100 0.0 0.0 0.00 0.00 0.00 56 1011.6
20190421184706 18 114 0.0 0.0 0.00 0.00 0.00 53 1011.5
20190421183217 20 177 0.0 0.0 0.00 0.00 0.00 51 1011.6
20190421181724 20 177 0.0 0.0 0.00 0.00 0.00 47 1011.7
20190421180307 21 177 0.0 0.0 0.00 0.00 0.00 43 1011.6
20190421174611 21 177 0.0 0.0 0.00 0.00 0.00 42 1011.5
20190421173118 21 177 0.0 0.0 0.00 0.00 0.00 39 1011.7
20190421171632 22 177 0.0 0.0 0.00 0.00 0.00 38 1011.9
20190421170149 22 177 0.0 0.0 0.00 0.00 0.00 39 1012.0
20190421164602 22 231 0.0 0.0 0.00 0.00 0.00 37 1012.2
20190421163133 22 231 0.0 3.2 0.00 0.00 0.00 37 1012.4